Flag for U.S.A. Weather past 2 weeks in Lakewood, Colorado, U.S.A.

Now
57 °F

Partly sunny.


Feels Like: 57 °F
Forecast: 50 / 70 °F
Wind: No wind

Location: Centennial Airport

Current Time: May 28, 2015 at 8:45:58 AM

Latest Report: May 28, 2015 at 7:53 AM


Visibility: 10 mi

Pressure: 29.95 "Hg

Humidity: 78%

Dew point: 50 °F

Location of LakewoodLocation

Historic Weather in Lakewood — Graph

°F

Lakewood temperature yesterday

Maximum temperature yesterday: 74 °F (at 3:53 PM)
Minimum temperature yesterday: 47 °F (at 4:53 AM)
Average temperature yesterday: 61 °F

Past Weeks' High & Low Weather Summary

 TemperatureHumidityPressure
High74 °F (May 27, 3:53 PM)100% (May 19, 12:53 AM)30.34 "Hg (May 19, 12:53 AM)
Low36 °F (May 20, 5:53 AM)22% (May 14, 10:53 AM)29.56 "Hg (May 16, 12:53 PM)
Average51 °F72%29.94 "Hg
* Reported May 13 6:53 AM — May 28 6:53 AM, Lakewood, Weather by CustomWeather, © 2015

Note: Actual official high and low records may vary slightly from our data, if they occured in-between our weather recording intervals... More about our weather records

Advertising

Lakewood weather history for previous 24 hours

 ConditionsComfort  
Time TempWeatherWind HumidityBarometerVisibility
6:53 AM
Thu, May 28
53 °FBroken clouds.8 mph86%29.96 "Hg10 mi
5:53 AM49 °FPartly cloudy.7 mph86%29.98 "Hg10 mi
4:53 AM48 °FPassing clouds.No wind77%29.97 "Hg10 mi
3:53 AM50 °FPassing clouds.No wind74%29.92 "Hg10 mi
2:53 AM51 °FPassing clouds.No wind71%29.91 "Hg10 mi
1:53 AM51 °FPassing clouds.8 mph74%29.92 "Hg10 mi
12:53 AM53 °FPassing clouds.6 mph72%29.93 "Hg10 mi
11:53 PM
Wed, May 27
56 °FPassing clouds.8 mph65%29.93 "Hg10 mi
10:53 PM60 °FThunderstorms. Partly cloudy.7 mph52%29.91 "Hg10 mi
10:02 PM62 °FPassing clouds.3 mph54%30.08 "Hg10 mi
9:53 PM62 °FThunderstorms. Passing clouds.No wind56%29.92 "Hg10 mi
8:53 PM62 °FBroken clouds.5 mph60%29.90 "Hg10 mi
7:53 PM65 °FBroken clouds.8 mph49%29.89 "Hg10 mi
6:53 PM68 °FBroken clouds.6 mph44%29.90 "Hg10 mi
5:53 PM67 °FBroken clouds.7 mph47%29.90 "Hg10 mi
4:53 PM69 °FBroken clouds.14 mph42%29.90 "Hg10 mi
3:53 PM74 °FBroken clouds.8 mph29%29.88 "Hg10 mi
2:53 PM73 °FBroken clouds.9 mph29%29.90 "Hg10 mi
1:53 PM73 °FScattered clouds.No wind29%29.91 "Hg10 mi
12:53 PM71 °FBroken clouds.9 mph31%29.93 "Hg10 mi
11:53 AM69 °FBroken clouds.No wind31%29.95 "Hg10 mi
10:53 AM69 °FBroken clouds.9 mph31%29.94 "Hg10 mi
9:53 AM66 °FPassing clouds.7 mph39%29.95 "Hg10 mi
8:53 AM63 °FPassing clouds.9 mph45%29.96 "Hg10 mi
Weather by CustomWeather, © 2015

See weather overviewHow to use our weather pages